FLOCK 3P-80 (42026 NORAD) Tracking and Keplerian Element Data

This shows tracking and keplerian element data for the satellite.

Feedback or suggestion? Click here.




ElementValue
Catalog42026
NameFLOCK 3P-80
Epoch Orbit32441
Epoch Day358.9174857
Epoch Year2022
RAAN65.3444
Inclination97.2541
Eccentricity0.0005772
Argument of Perigee285.4542
Mean Anonmoly74.6077
Mean Motion15.59818179
Decay Rate0.0019145
L11 42026U 17008CG 22358.91748570 .00191450 00000+0 23351-2 0 9996
L22 42026 97.2541 65.3444 0005772 285.4542 74.6077 15.59818179324410



Live tracking and technical data element details for FLOCK 3P-80 (NORAD 42026). FLOCK 3P-80 can be tracked NOW for your location showing map with azimuth and elevation plus other details from your city location.







IsCatalogInMostPopularTable: catalog: 42026, numindb: 673
Update: records affected: 1



GetName: 42026 FLOCK 3P-80

Hit Count: updated at: Mon, 17 Jun 2024 23:35:00 GMT